Location: Perryvale
(54.4667°N, 113.3833°W)
Time: 19:49:37
(UTC+00:00)

SR - Pass Details

Date: 26 May 2024
Orbit: 580 x 858 km, 66.7° (Epoch: 19 June)

Event Time Altitude Azimuth Distance (km) Brightness Sun altitude
Rises 05:39:43 0° 307° (NW) 2,994 ? -10.7°
Reaches altitude 10° 05:42:42 10° 325° (NW) 2,032 ? -10.9°
Maximum altitude 05:45:57 19° 11° (N) 1,483 ? -11.1°
Drops below altitude 10° 05:49:06 10° 58° (ENE) 1,945 ? -11.2°
Sets 05:51:52 0° 76° (ENE) 2,822 ? -11.4°
